Location: Broletto
(44.6000°N, 10.5833°E)
Time: 02:18:18
(UTC+00:00)

SPOT 3 Rocket - Pass Details

Date: 18 April 2021
Orbit: 778 x 795 km, 98.7° (Epoch: 08 May)

Event Time Altitude Azimuth Distance (km) Brightness Sun altitude
Exits shadow 20:03:45 26° 173° (S) 1,524 4.6 -19.2°
Maximum altitude 20:06:47 78° 257° (WSW) 811 3.6 -19.6°
Drops below altitude 10° 20:11:59 10° 343° (NNW) 2,356 6.8 -20.4°
Sets 20:14:19 0° 345° (NNW) 3,286 7.7 -20.7°
